| time (UTC) | temp C | wind direction | speed KPH | gust KPH | rain 1hr cm | rain 24hr cm | rain mn cm | humidity % | barometer mb |
| 20260505124743 | 12 | 45 | 4.8 | 16.1 | 0.00 | 0.48 | 0.48 | 90 | 1008.0 |
| 20260505122717 | 12 | 45 | 1.6 | 8.0 | 0.00 | 0.48 | 0.48 | 92 | 1008.2 |
| 20260505121710 | 11 | 90 | 3.2 | 11.3 | 0.00 | 0.48 | 0.48 | 92 | 1008.2 |
| 20260505120701 | 11 | 23 | 4.8 | 14.5 | 0.00 | 0.48 | 0.48 | 93 | 1008.2 |
| 20260505115700 | 11 | 23 | 3.2 | 14.5 | 0.00 | 0.48 | 0.48 | 94 | 1008.3 |
| 20260505114649 | 11 | 0 | 4.8 | 12.9 | 0.00 | 0.48 | 0.48 | 94 | 1008.4 |
| 20260505113628 | 11 | 0 | 3.2 | 11.3 | 0.00 | 0.48 | 0.48 | 95 | 1008.4 |
| 20260505112600 | 11 | 0 | 3.2 | 8.0 | 0.00 | 0.48 | 0.48 | 95 | 1008.4 |
| 20260505111541 | 11 | 45 | 1.6 | 8.0 | 0.00 | 0.48 | 0.48 | 96 | 1008.6 |
| 20260505110509 | 11 | 0 | 3.2 | 14.5 | 0.00 | 0.48 | 0.48 | 96 | 1008.6 |
| 20260505100341 | 10 | 45 | 1.6 | 9.7 | 0.00 | 0.48 | 0.48 | 98 | 1008.6 |
| 20260505094336 | 10 | 45 | 4.8 | 12.9 | 0.00 | 0.48 | 0.48 | 98 | 1008.7 |
| 20260505093311 | 10 | 45 | 3.2 | 9.7 | 0.00 | 0.48 | 0.48 | 98 | 1008.7 |
| 20260505092242 | 10 | 45 | 4.8 | 11.3 | 0.00 | 0.48 | 0.48 | 98 | 1008.7 |
| 20260505091213 | 10 | 45 | 3.2 | 11.3 | 0.00 | 0.48 | 0.48 | 98 | 1008.6 |
| 20260505090145 | 10 | 45 | 3.2 | 8.0 | 0.00 | 0.48 | 0.48 | 98 | 1008.6 |
| 20260505085127 | 10 | 23 | 1.6 | 8.0 | 0.00 | 0.48 | 0.48 | 98 | 1008.7 |
| 20260505084053 | 10 | 23 | 1.6 | 6.4 | 0.00 | 0.48 | 0.48 | 98 | 1008.6 |
| 20260505081020 | 10 | 23 | 3.2 | 8.0 | 0.00 | 0.48 | 0.48 | 98 | 1008.6 |
| 20260505080017 | 10 | 23 | 3.2 | 11.3 | 0.00 | 0.48 | 0.48 | 98 | 1008.6 |
| 20260505074942 | 10 | 23 | 3.2 | 9.7 | 0.03 | 0.48 | 0.48 | 97 | 1008.6 |
| 20260505072843 | 10 | 23 | 1.6 | 8.0 | 0.03 | 0.48 | 0.48 | 97 | 1008.6 |
| 20260505071819 | 9 | 315 | 1.6 | 6.4 | 0.03 | 0.48 | 0.48 | 97 | 1008.6 |
| 20260505070754 | 9 | 45 | 3.2 | 9.7 | 0.03 | 0.48 | 0.48 | 97 | 1008.6 |
| 20260505064703 | 9 | 23 | 1.6 | 6.4 | 0.05 | 0.46 | 0.46 | 97 | 1008.6 |
| 20260505063636 | 9 | 23 | 1.6 | 11.3 | 0.05 | 0.46 | 0.46 | 97 | 1008.6 |
| 20260505062618 | 9 | 23 | 1.6 | 6.4 | 0.08 | 0.46 | 0.46 | 97 | 1008.6 |
| 20260505061556 | 9 | 0 | 1.6 | 6.4 | 0.08 | 0.46 | 0.46 | 97 | 1008.6 |
| 20260505060525 | 8 | 23 | 1.6 | 6.4 | 0.08 | 0.43 | 0.43 | 96 | 1008.6 |
| 20260505055457 | 8 | 23 | 1.6 | 9.7 | 0.10 | 0.43 | 0.43 | 96 | 1008.6 |
| 20260505053354 | 8 | 0 | 1.6 | 6.4 | 0.08 | 0.38 | 0.38 | 96 | 1008.7 |
| 20260505051309 | 8 | 23 | 1.6 | 8.0 | 0.13 | 0.36 | 0.36 | 95 | 1008.6 |
| 20260505050245 | 8 | 23 | 1.6 | 8.0 | 0.13 | 0.33 | 0.33 | 95 | 1008.6 |
| 20260505041105 | 9 | 23 | 3.2 | 8.0 | 0.18 | 0.23 | 0.23 | 94 | 1008.6 |
| 20260505040047 | 9 | 23 | 3.2 | 8.0 | 0.18 | 0.18 | 0.18 | 94 | 1008.6 |
| 20260505035007 | 9 | 23 | 1.6 | 8.0 | 0.15 | 0.15 | 0.15 | 93 | 1008.6 |
| 20260505033937 | 9 | 23 | 3.2 | 9.7 | 0.13 | 0.13 | 0.13 | 93 | 1008.7 |
| 20260505032905 | 9 | 338 | 1.6 | 8.0 | 0.10 | 0.10 | 0.10 | 93 | 1008.7 |
| 20260505031848 | 10 | 315 | 1.6 | 6.4 | 0.05 | 0.05 | 0.05 | 92 | 1008.7 |
| 20260505030823 | 10 | 315 | 1.6 | 6.4 | 0.00 | 0.00 | 0.00 | 92 | 1008.7 |
| 20260505025749 | 10 | 23 | 1.6 | 8.0 | 0.00 | 0.00 | 0.00 | 92 | 1008.7 |
| 20260505024715 | 10 | 338 | 1.6 | 9.7 | 0.00 | 0.00 | 0.00 | 91 | 1008.9 |
| 20260505022640 | 10 | 0 | 1.6 | 8.0 | 0.00 | 0.00 | 0.00 | 90 | 1009.0 |
| 20260505021625 | 10 | 23 | 1.6 | 6.4 | 0.00 | 0.00 | 0.00 | 90 | 1009.0 |
| 20260505015545 | 10 | 338 | 1.6 | 6.4 | 0.00 | 0.00 | 0.00 | 89 | 1009.1 |
| 20260505014541 | 10 | 338 | 3.2 | 8.0 | 0.00 | 0.00 | 0.00 | 89 | 1009.0 |
| 20260505013526 | 10 | 0 | 1.6 | 8.0 | 0.00 | 0.00 | 0.00 | 88 | 1009.1 |
| 20260505012510 | 10 | 338 | 1.6 | 8.0 | 0.00 | 0.00 | 0.00 | 88 | 1009.1 |
| 20260505011452 | 10 | 0 | 1.6 | 6.4 | 0.00 | 0.00 | 0.00 | 87 | 1009.2 |
| 20260505010434 | 10 | 0 | 1.6 | 6.4 | 0.00 | 0.00 | 0.00 | 87 | 1009.5 |
| 20260505005415 | 10 | 45 | 0.0 | 6.4 | 0.00 | 0.00 | 0.00 | 87 | 1009.5 |
| 20260505004346 | 11 | 23 | 1.6 | 8.0 | 0.00 | 0.00 | 0.00 | 87 | 1009.5 |
| 20260505003325 | 11 | 23 | 1.6 | 4.8 | 0.00 | 0.00 | 0.00 | 87 | 1009.5 |
| 20260505002252 | 11 | 315 | 1.6 | 8.0 | 0.00 | 0.00 | 0.00 | 87 | 1009.6 |
| 20260505001225 | 11 | 23 | 1.6 | 8.0 | 0.00 | 0.00 | 0.00 | 87 | 1009.6 |
| 20260505000226 | 11 | 23 | 0.0 | 4.8 | 0.00 | 0.00 | 0.00 | 87 | 1009.6 |
| 20260504235211 | 11 | 23 | 1.6 | 6.4 | 0.00 | 0.00 | 0.00 | 87 | 1009.6 |
| 20260504234200 | 11 | 338 | 1.6 | 6.4 | 0.00 | 0.00 | 0.00 | 88 | 1009.6 |
| 20260504232127 | 11 | 23 | 1.6 | 6.4 | 0.00 | 0.00 | 0.00 | 88 | 1009.8 |
| 20260504231120 | 11 | 338 | 1.6 | 4.8 | 0.00 | 0.00 | 0.00 | 88 | 1009.8 |
| 20260504230111 | 11 | 23 | 0.0 | 4.8 | 0.00 | 0.00 | 0.00 | 87 | 1009.8 |
| 20260504225022 | 11 | 0 | 1.6 | 3.2 | 0.00 | 0.00 | 0.00 | 87 | 1009.9 |
| 20260504223955 | 11 | 23 | 0.0 | 4.8 | 0.00 | 0.00 | 0.00 | 87 | 1009.9 |
| 20260504221900 | 12 | 315 | 1.6 | 6.4 | 0.00 | 0.00 | 0.00 | 87 | 1010.1 |
| 20260504220843 | 12 | 315 | 1.6 | 8.0 | 0.00 | 0.00 | 0.00 | 86 | 1010.1 |
| 20260504215842 | 12 | 315 | 1.6 | 6.4 | 0.00 | 0.00 | 0.00 | 86 | 1010.1 |
| 20260504214812 | 12 | 338 | 0.0 | 6.4 | 0.00 | 0.00 | 0.00 | 86 | 1010.1 |
| 20260504211712 | 12 | 315 | 1.6 | 3.2 | 0.00 | 0.00 | 0.00 | 84 | 1010.1 |
| 20260504205649 | 13 | 315 | 0.0 | 1.6 | 0.00 | 0.00 | 0.00 | 83 | 1010.0 |
| 20260504204623 | 13 | 315 | 0.0 | 1.6 | 0.00 | 0.00 | 0.00 | 82 | 1010.1 |
| 20260504203558 | 13 | 315 | 0.0 | 1.6 | 0.00 | 0.00 | 0.00 | 81 | 1010.1 |
| 20260504202526 | 13 | 315 | 0.0 | 1.6 | 0.00 | 0.00 | 0.00 | 80 | 1010.1 |
| 20260504200456 | 14 | 315 | 0.0 | 4.8 | 0.00 | 0.00 | 0.00 | 79 | 1010.0 |
| 20260504195456 | 14 | 315 | 0.0 | 4.8 | 0.00 | 0.00 | 0.00 | 78 | 1010.0 |
| 20260504194443 | 15 | 315 | 1.6 | 6.4 | 0.00 | 0.00 | 0.00 | 77 | 1009.9 |
| 20260504193419 | 15 | 315 | 1.6 | 6.4 | 0.00 | 0.00 | 0.00 | 76 | 1009.8 |
| 20260504192410 | 15 | 315 | 1.6 | 6.4 | 0.00 | 0.00 | 0.00 | 75 | 1009.8 |
| 20260504191343 | 16 | 315 | 1.6 | 4.8 | 0.00 | 0.00 | 0.00 | 74 | 1009.8 |
| 20260504190310 | 16 | 315 | 0.0 | 4.8 | 0.00 | 0.00 | 0.00 | 73 | 1009.7 |
| 20260504185307 | 16 | 315 | 3.2 | 8.0 | 0.00 | 0.00 | 0.00 | 73 | 1009.6 |
| 20260504184238 | 16 | 315 | 1.6 | 8.0 | 0.00 | 0.00 | 0.00 | 73 | 1009.5 |
| 20260504183218 | 17 | 315 | 1.6 | 6.4 | 0.00 | 0.00 | 0.00 | 72 | 1009.5 |
| 20260504182149 | 17 | 315 | 3.2 | 6.4 | 0.00 | 0.00 | 0.00 | 71 | 1009.5 |
| 20260504181132 | 17 | 315 | 3.2 | 6.4 | 0.00 | 0.00 | 0.00 | 71 | 1009.4 |
| 20260504180117 | 17 | 338 | 3.2 | 9.7 | 0.00 | 0.00 | 0.00 | 70 | 1009.4 |
| 20260504175052 | 17 | 0 | 3.2 | 8.0 | 0.00 | 0.00 | 0.00 | 70 | 1009.4 |
| 20260504174034 | 17 | 315 | 3.2 | 8.0 | 0.00 | 0.00 | 0.00 | 70 | 1009.5 |
| 20260504173010 | 17 | 315 | 4.8 | 9.7 | 0.00 | 0.00 | 0.00 | 69 | 1009.5 |
| 20260504171944 | 17 | 315 | 3.2 | 11.3 | 0.00 | 0.00 | 0.00 | 68 | 1009.4 |
| 20260504150535 | 20 | 248 | 6.4 | 17.7 | 0.00 | 0.00 | 0.00 | 60 | 1009.6 |